Location: Newark
(45.8167°N, 8.7833°E)
Time: 11:18:54
(UTC+00:00)

Starlink (trailer) - Visible Passes

Search period start: 20 July 2019 00:00
Search period end: 30 July 2019 00:00
Orbit: 548 x 551 km, 53.0° (Epoch: 19 July)

Date Brightness Start Highest point End Pass type
(mag) Time Alt. Az. Time Alt. Az. Time Alt. Az.
20 Jul 3.7 00:50:05 56° SE 00:50:05 56° SE 00:54:10 10° ENE visible
20 Jul 4.7 02:25:52 10° W 02:29:49 42° NNW 02:33:46 10° NE visible
21 Jul 3.5 00:44:33 72° SSE 00:44:39 73° SE 00:48:48 10° ENE visible
21 Jul 4.9 02:20:38 10° W 02:24:30 37° NNW 02:28:23 10° NE visible
22 Jul 3.5 00:38:59 79° WSW 00:39:15 89° NNW 00:43:24 10° ENE visible
22 Jul 5.1 02:15:24 10° WNW 02:19:12 34° NNW 02:23:01 10° NE visible
22 Jul 6.2 22:57:44 11° E 22:57:44 11° E 22:57:55 10° E visible
23 Jul 3.7 00:33:22 63° WNW 00:33:51 72° NNW 00:38:00 10° ENE visible
23 Jul 5.3 02:10:10 10° WNW 02:13:54 31° N 02:17:40 10° NE visible
23 Jul 6.0 22:52:04 14° ENE 22:52:04 14° ENE 22:52:44 10° ENE visible
24 Jul 4.0 00:27:40 48° WNW 00:28:29 59° NNW 00:32:35 10° NE visible
24 Jul 5.4 02:04:56 10° WNW 02:08:38 30° N 02:12:20 10° ENE visible
24 Jul 5.7 22:46:19 17° ENE 22:46:19 17° ENE 22:47:28 10° ENE visible
25 Jul 4.4 00:21:55 37° WNW 00:23:07 49° NNW 00:27:11 10° NE visible
25 Jul 5.5 01:59:40 10° WNW 02:03:22 29° N 02:07:02 10° ENE visible
25 Jul 5.3 22:40:28 23° ENE 22:40:28 23° ENE 22:42:09 10° ENE visible
26 Jul 4.7 00:16:04 28° WNW 00:17:47 42° NNW 00:21:46 10° NE visible
26 Jul 5.5 01:54:23 10° WNW 01:58:05 30° N 02:01:45 10° ENE visible
26 Jul 4.8 22:34:27 32° ENE 22:34:27 32° ENE 22:36:47 10° ENE visible
27 Jul 5.0 00:10:02 20° WNW 00:12:28 38° NNW 00:16:22 10° NE visible
27 Jul 5.5 01:49:05 10° WNW 01:52:48 30° N 01:56:30 10° ENE visible
27 Jul 4.0 22:28:08 53° ENE 22:28:08 53° ENE 22:31:23 10° ENE visible
28 Jul 5.2 00:03:42 12° WNW 00:07:09 34° NNW 00:10:59 10° NE visible
28 Jul 5.4 01:43:45 10° NW 01:47:31 32° N 01:51:16 10° ENE visible
28 Jul 3.9 03:23:23 10° WNW 03:27:33 76° NNE 03:31:42 10° ESE visible
28 Jul 5.8 20:45:27 12° E 20:45:27 12° E 20:45:50 10° E visible
28 Jul 3.7 22:20:54 52° W 22:21:48 75° NNW 22:25:58 10° ENE visible
28 Jul 5.4 23:58:06 10° WNW 00:01:51 32° N 00:05:37 10° NE visible
29 Jul 5.3 01:38:23 10° NW 01:42:13 34° NNE 01:46:02 10° E visible
29 Jul 3.6 03:17:59 10° WNW 03:22:09 86° SSW 03:26:17 10° SE visible
29 Jul 4.4 20:33:24 10° SSW 20:37:01 30° SE 20:40:40 10° ENE visible
29 Jul 4.1 22:12:18 10° WSW 22:16:25 61° NNW 22:20:32 10° NE visible
